Weather in Salmi

Russia / Republic of Karelia     61°22′06″N   31°51′57″E
temp.,
°C
wind,
m/s
gust,
m/s
humid.,
%
clouds,
%
prec.,
mm/h
press.,
hPa
HPBL,
m
31 july, sat
sat3100:00+16s7118143 0.0 997144
03:00+16s7118393 0.2 995192
06:00+15s6985100 0.3 994236
09:00+15s898975 0.8 993460
12:00+15sw458969 0.4 994318
15:00+15w44897 0.5 996227
18:00+16sw348223 0.0 997152
21:00+17wsw58806 0.0 99881
1 august, sun
sun100:00+16wsw69824 0.0 999116
03:00+16sw711873 0.0 1001188
06:00+16sw69946 0.0 1001244
09:00+15ssw6796100 0.1 1001227
12:00+16s569485 0.6 1001135
15:00+15sse6896100 2.2 1000257
18:00+17ssw712825 0.1 999156
21:00+17ssw8138325 0.3 999187
2 august, mon
mon200:00+16sw813918 0.6 1001365
03:00+16sw913888 0.7 1001376
06:00+16sw912874 0.0 1003450
09:00+15sw7989100 0.0 1003346
12:00+16s6887100 0.0 1004255
15:00+16sse6781100 0.0 1003198
18:00+17se5678100 0.0 100293
21:00+15sse5793100 0.1 1000187
3 august, tue
tue300:00+15ese1297100 3.3 99983
03:00+15nne3495100 7.3 999186
06:00+15w118978 0.3 99852
09:00+15wsw57875 0.4 999258
12:00+16wsw58832 0.0 1000265
15:00+17ssw57750 0.0 1000213
18:00+17w797387 0.0 1002209
21:00+16wnw911825 0.1 1004531
4 august, wed
wed400:00+15wnw89775 0.0 1006619
03:00+14nw910770 0.0 1008778
06:00+13nw812730 0.0 1010610
09:00+13nw69650 0.0 1012577
12:00+15w67640 0.0 1014571
15:00+16wsw45630 0.0 1015296
18:00+16sw55676 0.0 1015176
21:00+16wsw336849 0.0 101629